SWA4499 KDAL-KVPS

Flight info

Callsign SWA4499
Flight time 1h 20m
Altitude 35000
Route LNDRE5 ZALEA MCB MUURY CEW
Aircraft B738/M-SDE2E3FGHIRWXY/LB1

Departure

Time 2026-05-04 02:44
Airport Dallas Love Field (KDAL)

Arrival

Time 2026-05-04 04:05
Airport Destin-Fort Walton Beach Airport (KVPS)
Time Latitude Longitude Altitude Speed Heading
2026-05-04 02:23 32.84636 -96.85230 485 ft 0 kts 136°
2026-05-04 02:40 32.84638 -96.85233 485 ft 4 kts 136°
2026-05-04 02:40 32.84661 -96.85259 476 ft 6 kts 136°
2026-05-04 02:40 32.84678 -96.85271 477 ft 0 kts 211°
2026-05-04 02:40 32.84671 -96.85276 476 ft 3 kts 211°
2026-05-04 02:41 32.84638 -96.85306 483 ft 8 kts 224°
2026-05-04 02:41 32.84610 -96.85372 484 ft 9 kts 270°
2026-05-04 02:41 32.84621 -96.85463 479 ft 14 kts 278°
2026-05-04 02:41 32.84654 -96.85590 478 ft 17 kts 306°
2026-05-04 02:42 32.84738 -96.85706 479 ft 20 kts 313°
2026-05-04 02:42 32.84845 -96.85833 482 ft 23 kts 302°
2026-05-04 02:42 32.84965 -96.85969 481 ft 25 kts 317°
2026-05-04 02:42 32.85093 -96.86120 478 ft 26 kts 316°
2026-05-04 02:43 32.85188 -96.86241 475 ft 6 kts 287°
2026-05-04 02:43 32.85174 -96.86284 474 ft 6 kts 218°
2026-05-04 02:43 32.85131 -96.86315 477 ft 8 kts 195°
2026-05-04 02:43 32.85080 -96.86298 479 ft 8 kts 135°
2026-05-04 02:44 32.85021 -96.86214 475 ft 33 kts 134°
2026-05-04 02:44 32.84657 -96.85782 485 ft 114 kts 135°
2026-05-04 02:44 32.83901 -96.84940 531 ft 179 kts 136°
2026-05-04 02:44 32.83046 -96.83801 1330 ft 186 kts 132°
2026-05-04 02:45 32.82131 -96.82708 2147 ft 190 kts 144°
2026-05-04 02:45 32.81138 -96.81607 2786 ft 200 kts 139°
2026-05-04 02:45 32.80127 -96.80336 2961 ft 224 kts 137°
2026-05-04 02:45 32.79031 -96.78945 3440 ft 235 kts 137°
2026-05-04 02:46 32.77864 -96.77475 3838 ft 253 kts 137°
2026-05-04 02:46 32.76627 -96.75925 4498 ft 261 kts 137°
2026-05-04 02:46 32.75382 -96.74386 5407 ft 264 kts 139°
2026-05-04 02:46 32.74053 -96.72844 6211 ft 270 kts 139°
2026-05-04 02:47 32.72686 -96.71277 6987 ft 276 kts 139°
2026-05-04 02:47 32.71298 -96.69683 7838 ft 279 kts 138°
2026-05-04 02:47 32.69903 -96.68053 8637 ft 283 kts 137°
2026-05-04 02:47 32.68682 -96.66188 9404 ft 293 kts 116°
2026-05-04 02:48 32.68216 -96.63817 10190 ft 299 kts 94°
2026-05-04 02:48 32.68167 -96.61282 10621 ft 318 kts 91°
2026-05-04 02:48 32.68147 -96.58567 10937 ft 337 kts 91°
2026-05-04 02:48 32.68113 -96.55796 11548 ft 344 kts 92°
2026-05-04 02:49 32.68085 -96.52938 12265 ft 348 kts 89°
2026-05-04 02:49 32.68253 -96.50047 12983 ft 353 kts 84°
2026-05-04 02:49 32.68522 -96.47127 13679 ft 358 kts 84°
2026-05-04 02:49 32.68802 -96.44173 14338 ft 362 kts 84°
2026-05-04 02:50 32.69064 -96.41182 14991 ft 366 kts 84°
2026-05-04 02:50 32.69310 -96.38156 15648 ft 370 kts 84°
2026-05-04 02:50 32.69548 -96.35100 16289 ft 374 kts 84°
2026-05-04 02:50 32.69712 -96.32004 16907 ft 378 kts 90°
2026-05-04 02:51 32.69593 -96.28867 17553 ft 382 kts 94°
2026-05-04 02:51 32.69350 -96.25711 18175 ft 386 kts 95°
2026-05-04 02:51 32.69077 -96.22517 18723 ft 391 kts 95°
2026-05-04 02:51 32.68814 -96.19322 19245 ft 395 kts 95°
2026-05-04 02:52 32.68563 -96.16052 19761 ft 400 kts 94°
2026-05-04 02:52 32.68325 -96.12748 20276 ft 404 kts 94°
2026-05-04 02:52 32.68094 -96.09402 20783 ft 409 kts 94°
2026-05-04 02:52 32.67865 -96.06018 21286 ft 413 kts 94°
2026-05-04 02:53 32.67635 -96.02603 21794 ft 417 kts 94°
2026-05-04 02:53 32.67402 -95.99150 22285 ft 421 kts 94°
2026-05-04 02:53 32.67165 -95.95663 22757 ft 426 kts 93°
2026-05-04 02:53 32.66924 -95.92141 23216 ft 431 kts 93°
2026-05-04 02:54 32.66680 -95.88583 23668 ft 435 kts 93°
2026-05-04 02:54 32.66432 -95.84985 24057 ft 439 kts 93°
2026-05-04 02:54 32.66183 -95.81391 24402 ft 445 kts 93°
2026-05-04 02:54 32.65929 -95.77715 24766 ft 449 kts 93°
2026-05-04 02:55 32.65409 -95.70260 25490 ft 457 kts 92°
2026-05-04 02:55 32.65142 -95.66474 25838 ft 462 kts 92°
2026-05-04 02:55 32.64873 -95.62659 26192 ft 466 kts 92°
2026-05-04 02:56 32.64599 -95.58805 26532 ft 470 kts 92°
2026-05-04 02:56 32.64322 -95.54927 26865 ft 474 kts 92°
2026-05-04 02:56 32.64042 -95.51013 27205 ft 478 kts 92°
2026-05-04 02:56 32.63757 -95.47060 27521 ft 482 kts 92°
2026-05-04 02:57 32.63469 -95.43075 27871 ft 485 kts 91°
2026-05-04 02:57 32.63177 -95.39070 28187 ft 489 kts 91°
2026-05-04 02:57 32.62884 -95.35044 28503 ft 493 kts 91°
2026-05-04 02:57 32.62586 -95.30977 28820 ft 496 kts 91°
2026-05-04 02:58 32.62284 -95.26882 29129 ft 499 kts 91°
2026-05-04 02:58 32.61983 -95.22819 29436 ft 503 kts 91°
2026-05-04 02:58 32.61675 -95.18673 29734 ft 506 kts 91°
2026-05-04 02:58 32.61363 -95.14493 30034 ft 509 kts 91°
2026-05-04 02:59 32.61048 -95.10291 30297 ft 512 kts 91°
2026-05-04 02:59 32.60730 -95.06081 30550 ft 514 kts 91°
2026-05-04 02:59 32.60409 -95.01848 30827 ft 516 kts 91°
2026-05-04 02:59 32.60086 -94.97601 31092 ft 518 kts 91°
2026-05-04 03:00 32.59760 -94.93339 31333 ft 520 kts 91°
2026-05-04 03:00 32.59431 -94.89052 31564 ft 523 kts 91°
2026-05-04 03:00 32.59099 -94.84747 31799 ft 525 kts 91°
2026-05-04 03:00 32.58765 -94.80426 32038 ft 527 kts 91°
2026-05-04 03:01 32.58286 -94.76104 32308 ft 531 kts 102°
2026-05-04 03:01 32.57211 -94.71905 32640 ft 532 kts 107°
2026-05-04 03:01 32.56011 -94.67761 32943 ft 532 kts 108°
2026-05-04 03:01 32.54788 -94.63664 33194 ft 534 kts 108°
2026-05-04 03:02 32.53550 -94.59509 33452 ft 535 kts 108°
2026-05-04 03:02 32.52328 -94.55344 33738 ft 535 kts 107°
2026-05-04 03:02 32.51123 -94.51169 34008 ft 535 kts 107°
2026-05-04 03:03 32.48734 -94.42759 34100 ft 541 kts 107°
2026-05-04 03:03 32.46348 -94.34330 34097 ft 537 kts 107°
2026-05-04 03:04 32.43990 -94.26038 34098 ft 534 kts 107°
2026-05-04 03:04 32.41609 -94.17705 34105 ft 534 kts 107°
2026-05-04 03:05 32.39223 -94.09383 34092 ft 534 kts 107°
2026-05-04 03:05 32.36827 -94.01048 34115 ft 534 kts 107°
2026-05-04 03:06 32.34427 -93.92723 34123 ft 535 kts 107°
2026-05-04 03:06 32.32013 -93.84374 34119 ft 536 kts 107°
2026-05-04 03:07 32.30003 -93.77437 34117 ft 536 kts 107°
2026-05-04 03:07 32.27182 -93.67731 34114 ft 537 kts 107°
2026-05-04 03:08 32.25159 -93.60790 34107 ft 537 kts 107°
2026-05-04 03:08 32.22720 -93.52445 34113 ft 537 kts 107°
2026-05-04 03:09 32.20305 -93.44096 34117 ft 537 kts 106°
2026-05-04 03:09 32.18050 -93.35696 34105 ft 537 kts 105°
2026-05-04 03:10 32.15835 -93.27284 34116 ft 536 kts 105°
2026-05-04 03:10 32.13597 -93.18890 34117 ft 536 kts 105°
2026-05-04 03:11 32.11330 -93.10492 34127 ft 537 kts 105°
2026-05-04 03:11 32.10190 -93.06288 34284 ft 539 kts 105°
2026-05-04 03:11 32.09044 -93.02070 34520 ft 539 kts 105°
2026-05-04 03:11 32.07898 -92.97856 34762 ft 539 kts 105°
2026-05-04 03:12 32.06753 -92.93654 35022 ft 539 kts 105°
2026-05-04 03:12 32.04456 -92.85233 35115 ft 538 kts 105°
2026-05-04 03:13 32.02175 -92.76894 35101 ft 532 kts 105°
2026-05-04 03:13 31.99918 -92.68666 35120 ft 529 kts 105°
2026-05-04 03:14 31.97651 -92.60420 35121 ft 528 kts 105°
2026-05-04 03:14 31.95384 -92.52200 35124 ft 528 kts 105°
2026-05-04 03:15 31.93112 -92.43984 35127 ft 528 kts 105°
2026-05-04 03:15 31.90830 -92.35755 35128 ft 529 kts 105°
2026-05-04 03:16 31.88538 -92.27515 35123 ft 530 kts 105°
2026-05-04 03:16 31.86237 -92.19267 35117 ft 531 kts 105°
2026-05-04 03:17 31.83940 -92.11055 35109 ft 532 kts 105°
2026-05-04 03:17 31.81618 -92.02779 35125 ft 533 kts 105°
2026-05-04 03:18 31.79285 -91.94486 35114 ft 533 kts 105°
2026-05-04 03:18 31.76953 -91.86220 35117 ft 533 kts 105°
2026-05-04 03:19 31.74617 -91.77963 35120 ft 532 kts 105°
2026-05-04 03:19 31.72277 -91.69715 35124 ft 531 kts 105°
2026-05-04 03:20 31.69952 -91.61540 35132 ft 530 kts 105°
2026-05-04 03:20 31.67611 -91.53337 35149 ft 529 kts 105°
2026-05-04 03:21 31.65266 -91.45136 35155 ft 528 kts 105°
2026-05-04 03:21 31.62924 -91.36971 35164 ft 527 kts 105°
2026-05-04 03:22 31.60580 -91.28822 35161 ft 527 kts 105°
2026-05-04 03:22 31.58248 -91.20734 35165 ft 526 kts 106°
2026-05-04 03:23 31.55902 -91.12619 35157 ft 525 kts 106°
2026-05-04 03:23 31.53551 -91.04511 35146 ft 524 kts 106°
2026-05-04 03:24 31.51199 -90.96420 35138 ft 524 kts 106°
2026-05-04 03:24 31.48845 -90.88344 35137 ft 523 kts 106°
2026-05-04 03:25 31.46486 -90.80273 35136 ft 523 kts 106°
2026-05-04 03:25 31.44125 -90.72213 35143 ft 523 kts 106°
2026-05-04 03:26 31.41760 -90.64165 35145 ft 523 kts 106°
2026-05-04 03:26 31.39391 -90.56124 35149 ft 522 kts 106°
2026-05-04 03:27 31.37019 -90.48094 35153 ft 522 kts 107°
2026-05-04 03:27 31.34643 -90.40071 35156 ft 522 kts 107°
2026-05-04 03:28 31.32266 -90.32064 35151 ft 521 kts 107°
2026-05-04 03:28 31.29962 -90.24037 35148 ft 519 kts 102°
2026-05-04 03:29 31.28236 -90.15864 35149 ft 517 kts 99°
2026-05-04 03:29 31.26659 -90.07724 35144 ft 516 kts 99°
2026-05-04 03:30 31.25033 -89.99536 35146 ft 516 kts 100°
2026-05-04 03:30 31.23362 -89.91371 35146 ft 516 kts 100°
2026-05-04 03:31 31.21676 -89.83234 35145 ft 515 kts 101°
2026-05-04 03:31 31.19986 -89.75105 35149 ft 514 kts 101°
2026-05-04 03:32 31.18298 -89.66997 35153 ft 514 kts 101°
2026-05-04 03:32 31.16605 -89.58890 35155 ft 513 kts 101°
2026-05-04 03:33 31.14913 -89.50808 35165 ft 511 kts 101°
2026-05-04 03:33 31.13233 -89.42817 35166 ft 510 kts 101°
2026-05-04 03:34 31.11744 -89.34766 34938 ft 502 kts 96°
2026-05-04 03:34 31.11205 -89.30779 34688 ft 492 kts 95°
2026-05-04 03:34 31.10723 -89.26864 34422 ft 484 kts 95°
2026-05-04 03:34 31.10253 -89.22986 34062 ft 480 kts 95°
2026-05-04 03:35 31.09778 -89.19146 33638 ft 477 kts 95°
2026-05-04 03:35 31.09289 -89.15328 33238 ft 474 kts 95°
2026-05-04 03:35 31.08790 -89.11543 32852 ft 470 kts 96°
2026-05-04 03:35 31.08286 -89.07789 32466 ft 466 kts 96°
2026-05-04 03:36 31.07778 -89.04061 32088 ft 463 kts 96°
2026-05-04 03:36 31.07273 -89.00368 31714 ft 460 kts 96°
2026-05-04 03:36 31.06770 -88.96703 31346 ft 456 kts 96°
2026-05-04 03:36 31.06268 -88.93057 30978 ft 453 kts 96°
2026-05-04 03:37 31.05771 -88.89447 30619 ft 450 kts 96°
2026-05-04 03:37 31.05275 -88.85843 30249 ft 448 kts 96°
2026-05-04 03:37 31.04788 -88.82317 29837 ft 445 kts 96°
2026-05-04 03:37 31.04298 -88.78771 29430 ft 441 kts 96°
2026-05-04 03:38 31.03810 -88.75253 29061 ft 436 kts 96°
2026-05-04 03:38 31.03327 -88.71778 28676 ft 432 kts 96°
2026-05-04 03:38 31.02848 -88.68332 28300 ft 428 kts 96°
2026-05-04 03:38 31.02373 -88.64922 27933 ft 425 kts 96°
2026-05-04 03:39 31.01900 -88.61539 27573 ft 421 kts 96°
2026-05-04 03:39 31.01431 -88.58180 27195 ft 418 kts 96°
2026-05-04 03:39 31.00964 -88.54847 26840 ft 415 kts 96°
2026-05-04 03:39 31.00499 -88.51540 26478 ft 412 kts 96°
2026-05-04 03:40 31.00037 -88.48255 26119 ft 409 kts 96°
2026-05-04 03:40 30.99578 -88.44998 25768 ft 406 kts 96°
2026-05-04 03:40 30.99120 -88.41758 25421 ft 403 kts 96°
2026-05-04 03:40 30.98666 -88.38550 25074 ft 400 kts 96°
2026-05-04 03:41 30.98213 -88.35352 24728 ft 398 kts 96°
2026-05-04 03:41 30.97762 -88.32180 24378 ft 396 kts 96°
2026-05-04 03:41 30.97313 -88.29024 24035 ft 394 kts 96°
2026-05-04 03:41 30.96866 -88.25883 23683 ft 392 kts 96°
2026-05-04 03:42 30.96426 -88.22805 23282 ft 389 kts 96°
2026-05-04 03:42 30.95983 -88.19705 22908 ft 387 kts 96°
2026-05-04 03:42 30.95542 -88.16628 22562 ft 383 kts 96°
2026-05-04 03:42 30.95104 -88.13580 22209 ft 380 kts 96°
2026-05-04 03:43 30.94669 -88.10556 21867 ft 377 kts 97°
2026-05-04 03:43 30.94237 -88.07562 21531 ft 373 kts 97°
2026-05-04 03:43 30.93809 -88.04594 21192 ft 370 kts 97°
2026-05-04 03:43 30.93383 -88.01646 20857 ft 367 kts 97°
2026-05-04 03:44 30.92960 -87.98724 20530 ft 365 kts 97°
2026-05-04 03:44 30.92539 -87.95820 20196 ft 362 kts 97°
2026-05-04 03:44 30.92121 -87.92939 19879 ft 360 kts 97°
2026-05-04 03:44 30.91708 -87.90106 19558 ft 357 kts 97°
2026-05-04 03:45 30.91294 -87.87264 19237 ft 355 kts 97°
2026-05-04 03:45 30.90882 -87.84435 18914 ft 353 kts 97°
2026-05-04 03:45 30.90470 -87.81621 18593 ft 351 kts 97°
2026-05-04 03:45 30.90062 -87.78828 18253 ft 349 kts 97°
2026-05-04 03:46 30.89654 -87.76050 17889 ft 347 kts 97°
2026-05-04 03:46 30.89249 -87.73293 17560 ft 344 kts 97°
2026-05-04 03:46 30.88846 -87.70555 17251 ft 341 kts 97°
2026-05-04 03:46 30.88447 -87.67841 16941 ft 338 kts 97°
2026-05-04 03:47 30.88050 -87.65152 16630 ft 336 kts 97°
2026-05-04 03:47 30.87656 -87.62486 16305 ft 333 kts 97°
2026-05-04 03:47 30.87264 -87.59836 16000 ft 331 kts 97°
2026-05-04 03:47 30.86874 -87.57202 15694 ft 328 kts 97°
2026-05-04 03:48 30.86486 -87.54589 15395 ft 326 kts 97°
2026-05-04 03:48 30.86101 -87.51995 15094 ft 324 kts 97°
2026-05-04 03:48 30.85722 -87.49451 14783 ft 322 kts 97°
2026-05-04 03:48 30.85341 -87.46890 14503 ft 320 kts 97°
2026-05-04 03:49 30.84961 -87.44345 14204 ft 318 kts 98°
2026-05-04 03:49 30.84582 -87.41807 13907 ft 317 kts 98°
2026-05-04 03:49 30.84205 -87.39289 13574 ft 315 kts 98°
2026-05-04 03:49 30.83830 -87.36786 13276 ft 313 kts 98°
2026-05-04 03:50 30.83458 -87.34309 12986 ft 310 kts 98°
2026-05-04 03:50 30.83088 -87.31849 12700 ft 307 kts 98°
2026-05-04 03:50 30.82722 -87.29411 12422 ft 304 kts 98°
2026-05-04 03:50 30.82357 -87.26989 12136 ft 302 kts 98°
2026-05-04 03:51 30.81994 -87.24586 11851 ft 300 kts 98°
2026-05-04 03:51 30.81634 -87.22203 11571 ft 298 kts 98°
2026-05-04 03:51 30.81276 -87.19834 11290 ft 296 kts 98°
2026-05-04 03:51 30.80920 -87.17483 11025 ft 294 kts 98°
2026-05-04 03:52 30.80564 -87.15135 10747 ft 293 kts 98°
2026-05-04 03:52 30.80212 -87.12816 10478 ft 291 kts 98°
2026-05-04 03:52 30.79862 -87.10510 10278 ft 286 kts 98°
2026-05-04 03:52 30.79521 -87.08275 10063 ft 283 kts 98°
2026-05-04 03:53 30.79179 -87.06027 9760 ft 282 kts 98°
2026-05-04 03:53 30.78838 -87.03791 9492 ft 279 kts 98°
2026-05-04 03:53 30.78499 -87.01573 9231 ft 277 kts 98°
2026-05-04 03:53 30.78165 -86.99388 8985 ft 272 kts 98°
2026-05-04 03:54 30.77945 -86.97950 8815 ft 271 kts 98°
2026-05-04 03:54 30.77616 -86.95800 8564 ft 269 kts 98°
2026-05-04 03:54 30.77289 -86.93669 8332 ft 266 kts 98°
2026-05-04 03:54 30.76965 -86.91557 8074 ft 265 kts 98°
2026-05-04 03:55 30.76538 -86.88782 7757 ft 262 kts 98°
2026-05-04 03:55 30.76219 -86.86708 7504 ft 260 kts 99°
2026-05-04 03:55 30.76004 -86.85312 7358 ft 258 kts 99°
2026-05-04 03:55 30.75688 -86.83263 7119 ft 257 kts 99°
2026-05-04 03:56 30.75374 -86.81231 6882 ft 255 kts 99°
2026-05-04 03:56 30.75061 -86.79206 6644 ft 253 kts 99°
2026-05-04 03:56 30.74749 -86.77187 6418 ft 256 kts 99°
2026-05-04 03:56 30.74433 -86.75150 6182 ft 262 kts 99°
2026-05-04 03:57 30.74106 -86.73042 5956 ft 266 kts 99°
2026-05-04 03:57 30.73780 -86.70939 5707 ft 263 kts 99°
2026-05-04 03:57 30.73456 -86.68856 5491 ft 260 kts 99°
2026-05-04 03:57 30.73135 -86.66798 5259 ft 257 kts 99°
2026-05-04 03:58 30.72505 -86.62755 4823 ft 243 kts 99°
2026-05-04 03:58 30.72216 -86.60909 4685 ft 221 kts 99°
2026-05-04 03:58 30.71953 -86.59226 4549 ft 202 kts 99°
2026-05-04 03:59 30.71713 -86.57690 4378 ft 186 kts 99°
2026-05-04 03:59 30.71482 -86.56209 4013 ft 183 kts 99°
2026-05-04 03:59 30.71257 -86.54773 3745 ft 177 kts 99°
2026-05-04 03:59 30.71037 -86.53366 3680 ft 181 kts 99°
2026-05-04 04:00 30.70810 -86.51918 3566 ft 182 kts 99°
2026-05-04 04:00 30.70586 -86.50491 3483 ft 182 kts 99°
2026-05-04 04:00 30.70333 -86.49054 3396 ft 182 kts 109°
2026-05-04 04:00 30.69642 -86.47831 3326 ft 182 kts 135°
2026-05-04 04:01 30.68577 -86.47050 3246 ft 182 kts 159°
2026-05-04 04:01 30.67322 -86.46797 3084 ft 186 kts 184°
2026-05-04 04:01 30.66062 -86.47074 2909 ft 183 kts 192°
2026-05-04 04:01 30.64818 -86.47384 2716 ft 183 kts 192°
2026-05-04 04:02 30.63578 -86.47695 2519 ft 182 kts 192°
2026-05-04 04:02 30.62334 -86.48009 2330 ft 183 kts 192°
2026-05-04 04:02 30.61085 -86.48326 2119 ft 184 kts 192°
2026-05-04 04:02 30.59842 -86.48641 1895 ft 181 kts 192°
2026-05-04 04:03 30.58630 -86.48950 1670 ft 176 kts 192°
2026-05-04 04:03 30.57452 -86.49245 1444 ft 171 kts 192°
2026-05-04 04:03 30.56300 -86.49533 1242 ft 169 kts 191°
2026-05-04 04:03 30.55151 -86.49820 1073 ft 166 kts 191°
2026-05-04 04:04 30.54044 -86.50096 861 ft 160 kts 191°
2026-05-04 04:04 30.52975 -86.50361 656 ft 154 kts 191°
2026-05-04 04:04 30.51939 -86.50619 464 ft 151 kts 192°
2026-05-04 04:04 30.50916 -86.50873 284 ft 150 kts 191°
2026-05-04 04:05 30.49909 -86.51123 108 ft 143 kts 191°
2026-05-04 04:05 30.49011 -86.51357 62 ft 119 kts 197°
2026-05-04 04:05 30.48547 -86.51472 59 ft 36 kts 193°
2026-05-04 04:05 30.48308 -86.51535 59 ft 34 kts 192°
2026-05-04 04:06 30.48078 -86.51592 56 ft 33 kts 192°
2026-05-04 04:06 30.47857 -86.51647 54 ft 23 kts 192°
2026-05-04 04:06 30.47702 -86.51688 58 ft 22 kts 194°
2026-05-04 04:06 30.47596 -86.51798 57 ft 22 kts 260°
2026-05-04 04:07 30.47620 -86.51965 54 ft 21 kts 292°
2026-05-04 04:07 30.47668 -86.52156 55 ft 30 kts 283°
2026-05-04 04:07 30.47740 -86.52417 63 ft 38 kts 297°
2026-05-04 04:07 30.47885 -86.52706 61 ft 46 kts 299°
2026-05-04 04:08 30.47942 -86.52917 68 ft 18 kts 240°
2026-05-04 04:08 30.47809 -86.52999 63 ft 28 kts 207°
2026-05-04 04:08 30.47617 -86.53136 68 ft 29 kts 220°
2026-05-04 04:08 30.47590 -86.53293 65 ft 24 kts 294°
2026-05-04 04:09 30.47722 -86.53566 67 ft 55 kts 306°
2026-05-04 04:09 30.47962 -86.54038 78 ft 80 kts 300°
2026-05-04 04:09 30.48223 -86.54569 84 ft 44 kts 299°
2026-05-04 04:09 30.48265 -86.54720 86 ft 10 kts 256°
2026-05-04 04:10 30.48263 -86.54731 85 ft 0 kts 256°